Voltar ao catálogo

ARIANE 5 DEB

SYLDA

AtivoUNKNOWN
NORAD 29164·DEBRIS·🇫🇷 France

Lançado May 27, 2006 de Guiana Space Centre

Loading…

Próximas Passagens (próximas 24 horas)

TLE

AtualizadoSource: Space-Track

Época: Sep 14, 2026, 03:40 UTC

1 29164U 06020C   26257.15307092  .00173667 -96434-5  32342-2 0  9997
2 29164   6.7937 325.3434 1974763  78.9116 302.5557 11.55210654413330

Acompanhe ARIANE 5 DEB em tempo real com AllMySat

Download on the App Store